Preview of NWS' New Version of Forecast
This preview is not operational and should not be used for support decisions.

Regional Weather Roundup (RWR)

Issued by National Weather Service (NWS)

                            
000
ASUS46 KPQR 171310
RWROR 

OREGON REGIONAL WEATHER ROUNDUP
NATIONAL WEATHER SERVICE PORTLAND OR
600 AM PDT WED APR 17 2019

NOTE: "FAIR" INDICATES FEW OR NO CLOUDS BELOW 12,000 FEET WITH
NO SIGNIFICANT WEATHER AND/OR OBSTRUCTIONS TO VISIBILITY.

ORZ001>013-171400-
NORTHWEST OREGON

  
CITY           SKY/WX    TMP DP  RH WIND       PRES   REMARKS
ASTORIA        CLOUDY    49  46  90 S7        30.23S                  
TILLAMOOK      RAIN      48  46  93 CALM      30.28S                  
NEWPORT        CLOUDY    48  46  93 S6        30.30S                  
PORTLAND       CLOUDY    51  46  83 S7        30.27R                  
VANCOUVER WA   CLOUDY    50  47  89 CALM      30.26S                  
SCAPPOOSE      CLOUDY    50  47  89 CALM      30.25S                  
HILLSBORO      CLOUDY    48  46  93 CALM      30.26R                  
AURORA         CLOUDY    50  48  93 S3        30.28S                  
MCMINNVILLE    CLOUDY    48  46  93 S6        30.27R                  
SALEM          CLOUDY    50  46  86 S8        30.27S                  
CORVALLIS      CLOUDY    48  47  96 S3        30.29S                  
EUGENE         CLOUDY    50  46  86 S5        30.29S                  
$$

ORZ021-028-171400-
SOUTHWEST OREGON

  
CITY           SKY/WX    TMP DP  RH WIND       PRES   REMARKS
NORTH BEND     PTCLDY    48  47  96 SE6       30.31F                  
BROOKINGS      MOCLDY    47  45  93 CALM      30.29F                  
ROSEBURG       CLOUDY    50  46  86 CALM      30.29R                  
SEXTON SUMMIT  CLOUDY    41  37  86 CALM      30.24R                  
GRANTS PASS    CLOUDY    45  43  93 CALM      30.30R                  
MEDFORD        CLOUDY    47  42  83 NE3       30.27R                  
$$

ORZ014>016-041-171400-
COLUMBIA GORGE

  
CITY           SKY/WX    TMP DP  RH WIND       PRES   REMARKS
TROUTDALE      CLOUDY    51  46  83 SW3       30.27R                  
HOOD RIVER     CLOUDY    48  43  81 MISG      30.22S                  
THE DALLES     CLOUDY    52  42  69 NW16      30.20S                  
$$

ORZ029>031-041-044-049-050-061>064-502-503-505>511-171400-
EASTERN OREGON

  
CITY           SKY/WX    TMP DP  RH WIND       PRES   REMARKS
MADRAS         CLOUDY    45  36  70 CALM      30.22R                  
REDMOND        CLOUDY    45  37  73 CALM      30.19R                  
BEND           CLOUDY    45  36  70 E5        30.19R                  
PRINEVILLE     CLOUDY    41  37  87 SW3       30.20R                  
KLAMATH FALLS  CLOUDY    34  32  92 CALM      30.23S                  
LAKEVIEW       CLOUDY    32  31  96 CALM      30.23F                  
HERMISTON      MOCLDY    52  41  66 SW13      30.17S                  
PENDLETON      CLOUDY    49  39  68 W16       30.18R                  
JOHN DAY       CLOUDY    42  37  82 CALM      30.19S                  
MEACHAM        CLOUDY    39  36  89 CALM      30.18R                  
LA GRANDE      LGT RAIN  42  40  92 CALM      30.20R                  
BAKER CITY     CLOUDY    41  36  82 CALM      30.18R                  
BURNS          CLOUDY    40  33  76 CALM      30.19R                  
ROME             N/A     40  36  86 SE8       30.16S                  
ONTARIO        CLOUDY    41  38  89 CALM      30.18R                  
$$